Flag for Brazil Weather past 2 weeks in Manaus, Amazonas, Brazil

Now
75 °F

Light rain. Partly sunny.


Feels Like: 75 °F
Forecast: 76 / 85 °F
Wind: 9 mph from East

Location: Manaus Aeroporto

Current Time: Mar 4, 2015 at 3:04:16 PM

Latest Report: Mar 4, 2015 at 2:00 PM


Visibility: 5 mi

Pressure: N/A

Humidity: 89%

Dew point: 72 °F

Location of ManausLocation

Historic Weather in Manaus — Graph

°F

Manaus temperature yesterday

Maximum temperature yesterday: 88 °F (at 1:00 PM)
Minimum temperature yesterday: 77 °F (at 1:00 AM)
Average temperature yesterday: 80 °F

Past Weeks' High & Low Weather Summary

 TemperatureHumidityPressure
High91 °F (Feb 20, 1:00 PM)100% (Feb 21, 5:00 PM)30.04 "Hg (Feb 21, 5:00 PM)
Low41 °F (Feb 21, 5:00 PM)52% (Feb 20, 1:00 PM)29.74 "Hg (Feb 18, 5:00 PM)
Average79 °F81%29.85 "Hg
* Reported Feb 17 2:00 PM — Mar 4 2:00 PM, Manaus, Weather by CustomWeather, © 2015

Note: Actual official high and low records may vary slightly from our data, if they occured in-between our weather recording intervals... More about our weather records

Advertising

Manaus weather history for previous 24 hours

 ConditionsComfort  
Time TempWeatherWind HumidityBarometerVisibility
2:00 PM
Wed, Mar 4
75 °FLight rain. Partly sunny.9 mph89%N/A5 mi
1:00 PM75 °FThunderstorms. Partly sunny.10 mph89%N/A3 mi
12:00 PM73 °FThunderstorms. Partly sunny.13 mph94%29.92 "Hg2 mi
11:00 AM77 °FThunderstorms. Partly sunny.13 mph89%N/A2 mi
10:00 AM81 °FScattered showers. Broken clouds.3 mph84%N/AN/A
9:00 AM81 °FBroken clouds.5 mph84%29.92 "HgN/A
8:00 AM81 °FPassing clouds.2 mph84%29.89 "HgN/A
7:00 AM77 °FScattered clouds.2 mph89%29.86 "HgN/A
6:00 AM75 °FPassing clouds.No wind89%29.83 "HgN/A
5:00 AM75 °FPassing clouds.No wind89%29.80 "HgN/A
4:00 AM77 °FPassing clouds.2 mph83%29.80 "HgN/A
3:00 AM77 °FPassing clouds.2 mph83%29.80 "HgN/A
2:00 AM77 °FClear.3 mph83%29.80 "Hg10 mi
1:00 AM77 °FPassing clouds.3 mph83%29.83 "HgN/A
12:00 AM79 °FPassing clouds.5 mph79%29.86 "HgN/A
11:00 PM
Tue, Mar 3
77 °FPassing clouds.3 mph83%29.86 "HgN/A
10:00 PM79 °FPassing clouds.3 mph79%29.86 "HgN/A
9:00 PM79 °FPartly cloudy.2 mph79%29.83 "HgN/A
8:00 PM79 °FPartly cloudy.6 mph79%29.80 "HgN/A
7:00 PM79 °FPartly cloudy.10 mph79%29.80 "HgN/A
6:00 PM79 °FBroken clouds.6 mph79%29.77 "HgN/A
5:00 PM79 °FBroken clouds.8 mph79%29.74 "HgN/A
4:00 PM79 °FBroken clouds.10 mph79%29.74 "HgN/A
3:00 PM82 °FPartly sunny.15 mph70%29.74 "HgN/A
Weather by CustomWeather, © 2015

See weather overviewHow to use our weather pages